THORAD DELTA 1 DEB, 8170

Orbit data source: Space-Track

THORAD DELTA 1 DEB, 8170 is space debris in SSO originally from a launch on Fri, 15 Nov 1974 UTC launched from the Air Force Western Test Range (AFWTR). Debris objects in space refer to the collection of defunct objects orbiting the Earth. Examples of debris include non-operational satellites, rocket bodies, and fragments generated from explosions, collisions, or faulty payload assembly.

Loading next visibility...
THORAD DELTA 1 DEB details
Identifier
8170, 1974-089AL
Orbit
SSO
Last TLE update20 hours ago
Origin
Flag of USGSFC (US)
ManufacturerUnknown
MissionSpacecraft
Bus & MotorUnknown
MassUnknown
Launch date (UTC)
1974-11-15 (50 years ago)
Launch vehicleUnknown
Launch site
Air Force Western Test Range (AFWTR)
Object type
Payload
Rocket body
Debris
Shape & HBRUnknown
Radar Cross SectionSmall (<0.1 m²)

Expand to show TLE details & history

TLE from 20 hours ago
0 THORAD DELTA 1 DEB
1  8170U 74089AL  24360.62068681  .00033054  00000-0  22134-1 0  9994
2  8170 101.5932 230.0046 0083869 336.3241  54.6903 13.99000319413976
Epoch: 2024-12-25T14:53Z
Definitive object data (Epoch: 2024-12-25T14:53:47.34Z)
Latitude31.13942°
Longitude-95.13656°
Altitude866.142 km
Speed7.44 km/s
True Right ascension14h 51m 41s
True Declination30° 59' 23"
Sunlit
Object was in daylight at TLE epoch
Visualization TLE readout
Latitude-30.87249°
Longitude-79.98006°
Altitude847.755 km
Speed7.459 km/s
Apparent Right ascension18h 40m 36s
Apparent Declination-47° 09' 41"
Sunlit
Object is in daylight
Visualization observer readout
Local Sidereal Time10:33:02
Azimuth119.896° SE
Elevation-48.248°
Doppler factor1
Orbital elements
Apogee altitude955.6 km
Perigee altitude833.608 km
Semi-major axis7,272.741 km
Eccentricity0.0083869
Inclination101.5932°
RAAN230.0046°
Arg. of periapsis336.3241°
True anomaly55.47932°
Mean anomaly54.6903°
Eccentric anomaly55.08434°
Mean motion3.49942 °/min
BSTAR0.022134
Orbital period102.87 mins
Loading maneuver chart data...

THORAD DELTA 1 DEB Visibility forecast

Observer location: undefined°, undefined

Span
Click to sort rows by Start time (UTC) header in descending order
Start Az.
Max El. time (UTC)
Max El. Az.
Max El.
End time (UTC)
End Az.
10 mins2024-12-26 14:53:44.376Z142.646° SSE2024-12-26 14:58:44.376Z59.688° ENE39.432°2024-12-26 15:03:44.376Z352.254° N
6 mins2024-12-26 16:37:44.376Z232.048° WSW2024-12-26 16:39:44.376Z257.527° W18.299°2024-12-26 16:43:44.376Z306.101° NW
7 mins2024-12-27 03:24:44.376Z56.224° ENE2024-12-27 03:27:44.376Z91.651° ESE20.568°2024-12-27 03:31:44.376Z139.547° SSE
9 mins2024-12-27 05:05:44.376Z2.672° NNE2024-12-27 05:09:44.376Z288.515° WNW39.762°2024-12-27 05:14:44.376Z217.852° SW
|